Overview Statistics Trail Chart Weather Telemetry Raw packets
 

This is the latest recevied weather packets stored in our database for station/object HI3RRR-13. If no packets are shown the sender has not sent any weather packets the latest 10 day(s).

<< 41 42 43 44 45 46 47 >>
Time Temp. Humidity Pressure Rain* Wind** Luminosity Snow
1788015765 30.56° C 81% 1016 hPa 0 mm - - -
1788015163 30.56° C 81% 1016 hPa 0 mm - - -
1788014562 30.56° C 81% 1016 hPa 0 mm - - -
1788013960 31.11° C 81% 1016 hPa 0 mm - - -
1788013359 31.11° C 81% 1016 hPa 0 mm - - -
1788012758 31.11° C 81% 1016 hPa 0 mm - - -
1788012157 31.11° C 81% 1016 hPa 0 mm - - -
1788011555 31.11° C 81% 1016 hPa 0 mm - - -
1788010954 31.11° C 81% 1016 hPa 0 mm - - -
1788010353 26.67° C 78% 1016 hPa 0 mm - - -
1788009752 26.67° C 79% 1016 hPa 0 mm - - -
1788009150 27.22° C 82% 1016 hPa 0 mm - - -
1788009027 27.22° C 82% 1016 hPa 0 mm - - -
1788008427 28.89° C 89% 1016 hPa 0 mm - - -
1788007826 24.44° C 94% 1016 hPa 0 mm - - -
1788007226 24.44° C 94% 1016 hPa 0 mm - - -
1788006625 24.44° C 94% 1016 hPa 0 mm - - -
1788006024 24.44° C 94% 1016 hPa 0 mm - - -
1788005424 24.44° C 94% 1016 hPa 0 mm - - -
1788004823 23.33° C 94% 1016 hPa 0 mm - - -
1788004223 23.33° C 94% 1016 hPa 0 mm - - -
1788003622 23.33° C 94% 1016 hPa 0 mm - - -
1788003021 23.33° C 94% 1016 hPa 0 mm - - -
1788002421 23.33° C 94% 1016 hPa 0 mm - - -
1788001820 23.33° C 94% 1016 hPa 0 mm - - -

* Rain latest hour (hover to see other rain measurements)
** Current wind speed in m/s (hover to see current wind gust speed)